Theta_e
321 325 325 325 326 326 326 329 334 336 332 324 320 327 335 329 325 332 330 329 331 330 328 328 325 324 323 322 322 322 322 322 322 322 321 321 320 320 320 319 319 319 319 319 318 318 318 318 318 318 318 318 318 318 318 318 318 317 317 317 317 316 316 316 316 315 316 317 318 319 319 318 318 318 318 318 318 319 319 320 321 321 321 322 324 325 325
322 323 323 325 327 327 328 330 330 332 334 334 334 336 334 328 327 331 329 329 330 328 327 325 323 323 322 322 322 322 321 322 322 321 321 320 319 319 318 318 318 318 318 318 318 318 317 317 318 317 318 318 318 318 318 318 317 317 317 317 317 316 315 315 315 315 315 317 317 317 317 317 317 318 318 318 318 318 319 319 320 320 320 320 322 323 324
321 322 323 324 326 328 328 329 329 331 332 334 337 335 330 330 332 330 328 329 329 327 324 323 322 322 322 322 321 321 321 321 321 321 320 319 318 318 318 318 318 318 317 317 317 317 317 317 317 318 318 319 318 318 318 317 316 316 316 317 317 316 315 314 314 314 315 316 317 317 317 318 318 319 319 319 319 319 320 320 320 320 320 320 321 322 323
321 323 325 325 327 330 330 330 330 331 331 330 331 331 330 330 330 328 329 329 327 325 323 322 322 322 321 321 321 321 321 321 321 320 319 318 318 317 318 318 318 318 317 316 316 316 316 316 317 318 318 318 318 317 317 316 316 315 316 317 317 315 314 314 313 314 315 316 317 318 318 318 318 318 319 319 319 319 320 320 320 320 320 321 321 322 323
321 321 324 326 329 331 331 328 323 324 329 328 328 330 330 328 327 328 329 327 325 323 322 322 322 321 321 321 320 320 320 320 320 319 318 317 317 317 318 318 317 317 315 315 315 315 316 316 317 318 318 318 317 316 315 315 315 315 315 316 316 315 314 314 314 315 316 317 317 318 318 318 318 317 318 318 318 319 319 319 319 320 320 321 322 323 323
321 319 323 327 328 328 327 322 318 320 324 325 326 326 326 326 327 326 326 324 322 322 322 322 321 320 320 320 320 320 320 320 319 318 317 317 316 316 317 317 316 315 314 314 314 315 315 316 316 317 317 316 316 315 314 314 314 314 315 316 316 314 315 316 316 316 317 317 317 318 318 318 317 316 316 316 317 318 318 318 319 320 321 321 321 322 323
322 321 323 325 324 323 322 319 318 319 320 321 322 322 322 324 325 325 324 323 322 321 321 320 319 318 319 319 320 320 320 319 318 317 317 317 317 317 317 316 316 315 314 313 314 314 315 315 315 315 315 315 314 314 313 314 314 313 315 316 316 314 315 316 317 317 317 317 317 318 319 318 317 316 316 315 316 316 317 318 319 320 321 321 321 322 323
321 322 323 322 320 319 318 319 320 320 321 322 322 322 321 321 322 323 322 321 319 318 317 316 316 317 317 317 318 318 318 317 317 317 317 316 317 317 316 316 315 314 313 313 314 314 314 314 314 314 314 314 314 313 313 313 313 313 315 316 316 315 315 316 317 317 317 317 317 318 318 317 317 316 315 315 315 316 316 317 318 319 320 320 321 322 322
321 323 322 320 320 320 319 319 319 320 322 322 322 322 321 319 319 320 319 318 316 315 314 314 315 316 316 315 314 315 316 316 317 317 316 316 316 316 315 315 314 313 313 313 313 314 314 313 313 313 313 313 313 313 312 312 312 312 314 316 316 316 316 316 316 317 317 317 316 316 316 316 316 315 315 314 314 315 315 316 317 318 319 319 320 321 321
319 322 321 320 321 322 321 320 319 319 320 319 318 321 322 319 317 317 316 316 315 314 314 314 315 316 316 314 313 313 315 316 316 316 316 315 315 315 314 314 313 312 312 313 313 313 313 313 313 313 313 313 313 312 311 310 311 312 313 314 316 316 315 315 316 316 317 316 315 314 314 314 314 314 314 314 314 314 314 315 316 317 317 318 319 319 320
319 323 324 321 322 322 320 319 318 318 318 317 317 323 325 319 316 316 316 315 314 314 314 315 316 317 317 314 312 312 314 315 316 315 315 314 313 314 313 313 312 312 312 312 312 313 312 312 312 312 312 312 311 310 309 309 310 311 312 313 314 315 315 314 314 314 315 315 314 313 313 313 313 313 313 313 313 313 314 315 315 316 317 317 318 318 318
320 323 324 322 321 321 319 318 318 317 318 317 319 325 326 318 314 316 315 314 314 314 314 316 317 317 315 313 311 311 313 314 314 314 314 313 313 313 312 312 311 311 312 312 312 312 312 311 311 311 311 311 310 309 308 309 310 310 311 312 313 314 313 311 311 312 313 314 314 313 312 311 312 312 312 313 313 313 313 314 314 315 316 316 316 316 316
321 324 324 320 319 319 319 319 318 317 317 319 323 327 322 315 314 315 314 314 314 314 315 316 316 314 313 312 311 311 312 313 313 313 313 313 312 312 311 311 311 311 311 311 311 311 311 310 310 310 310 310 309 308 308 309 309 310 311 312 312 312 311 310 310 311 312 312 312 311 311 311 311 312 312 312 312 312 313 313 313 314 314 314 315 314 314
319 321 322 320 319 318 318 318 316 315 319 324 324 320 316 313 314 314 313 314 314 314 314 314 312 311 311 311 311 312 313 313 313 312 312 312 311 311 311 311 311 311 311 311 310 310 310 310 310 310 309 309 308 308 308 309 309 310 311 311 311 310 310 310 310 311 311 312 312 311 310 310 310 311 311 311 312 312 312 312 312 312 312 312 313 313 312
318 319 320 321 321 317 315 316 317 317 320 322 317 312 312 313 313 313 313 313 313 313 313 312 311 311 311 311 311 311 312 312 312 311 311 311 311 310 310 310 310 310 310 310 310 309 309 309 309 308 308 307 307 308 308 309 309 310 311 311 310 310 310 310 311 311 312 312 311 311 310 310 310 310 310 311 311 311 311 311 311 310 310 310 310 310 310
319 322 320 318 318 314 313 317 318 316 316 316 312 311 312 312 312 312 313 312 312 313 312 311 311 310 310 310 311 311 311 311 311 311 311 310 310 310 310 310 310 310 310 309 309 309 309 309 308 307 307 307 307 308 308 308 308 309 309 310 310 310 310 311 311 311 311 311 311 310 310 310 310 310 310 310 310 309 309 309 309 308 308 308 308 308 308
315 318 316 314 313 311 312 314 315 313 313 313 312 312 311 310 311 312 311 311 311 312 313 311 310 309 310 310 310 310 310 310 310 310 310 310 310 310 310 310 310 310 310 309 309 309 309 308 308 307 306 306 307 307 306 306 306 307 307 308 308 309 309 309 309 309 309 309 309 309 309 309 309 308 308 308 308 308 307 307 307 306 306 306 306 306 305
313 314 313 311 311 311 311 312 312 312 313 312 312 312 311 310 311 311 311 311 311 311 312 311 308 308 309 309 309 309 310 309 310 310 310 310 310 310 310 310 309 309 309 308 308 308 308 308 307 306 305 305 305 304 304 303 303 303 304 304 305 306 306 307 307 307 307 307 307 307 306 306 306 306 306 306 305 305 305 305 304 304 303 303 302 302 302
313 313 312 311 311 310 310 310 310 311 311 311 311 312 311 311 311 311 311 311 310 310 311 310 309 308 308 308 309 309 309 309 309 309 309 309 309 309 309 309 309 309 308 308 307 307 307 307 307 306 305 304 303 303 302 302 302 302 301 301 301 302 303 304 305 305 305 304 304 304 304 303 303 303 302 302 302 302 301 301 300 300 299 299 299 299 299
313 313 312 310 310 310 309 310 310 309 310 310 310 311 311 310 310 310 310 311 310 309 310 310 309 307 307 308 309 308 308 308 308 308 309 309 308 308 308 308 308 308 308 307 306 306 306 306 306 306 305 304 304 304 303 302 302 302 302 301 300 299 300 301 301 302 302 302 302 301 301 301 301 300 300 300 299 299 299 299 299 298 298 298 298 298 298
313 312 311 310 310 309 308 309 309 309 310 310 309 309 310 310 309 309 309 310 310 309 308 308 307 307 307 308 308 308 307 307 308 308 308 308 308 308 307 306 306 305 305 305 304 304 305 305 305 305 305 304 304 304 304 303 303 302 302 302 301 300 299 299 298 299 299 299 300 299 299 299 299 299 299 299 299 299 298 298 298 298 298 298 298 298 298
313 312 311 311 312 310 307 307 308 309 310 310 308 308 308 308 308 308 307 307 308 308 308 307 306 306 307 307 307 307 307 307 307 307 307 307 307 306 305 304 304 303 304 304 303 303 304 304 305 305 304 304 304 304 304 304 304 303 303 302 302 301 300 299 298 298 298 297 297 298 298 297 297 297 297 297 297 298 298 298 298 298 298 298 298 297 297
312 311 310 310 310 308 307 307 308 308 309 309 308 307 307 307 307 308 307 306 306 306 306 306 306 306 306 306 306 307 307 307 307 307 307 306 306 305 304 304 304 304 304 304 303 303 303 303 304 304 304 304 304 303 303 303 303 303 303 302 302 301 301 300 300 299 299 299 298 298 297 297 296 296 296 296 296 296 297 297 297 296 296 297 297 297 296
310 310 310 310 309 308 307 308 308 307 308 308 307 306 306 306 307 307 307 307 306 305 305 305 306 306 306 306 306 307 307 307 306 306 306 305 304 304 304 305 305 304 304 304 304 303 303 303 303 303 303 303 303 303 303 302 303 303 302 302 301 301 300 300 300 300 300 300 300 299 298 298 297 296 296 296 296 296 296 296 295 295 295 295 296 296 296
310 310 309 309 309 307 307 307 307 307 307 307 306 305 306 306 306 306 307 306 306 306 305 305 305 306 306 306 306 306 306 306 306 305 305 304 304 305 305 305 305 305 304 304 304 304 304 303 303 303 303 302 303 303 302 302 302 302 302 302 301 301 300 300 300 300 300 300 300 299 299 299 298 297 297 296 296 296 296 296 296 295 295 295 295 295 296
310 309 309 309 308 307 307 307 306 306 307 306 305 305 305 305 305 305 305 305 305 305 305 305 305 305 305 305 305 305 305 305 305 305 304 304 305 305 305 304 304 304 304 304 303 303 303 303 303 303 303 303 303 302 302 302 302 301 301 301 301 301 300 300 300 300 300 300 300 299 299 299 298 298 297 297 297 296 296 296 296 295 295 295 295 295 295
309 309 309 308 307 307 307 307 306 306 306 306 305 305 305 305 304 304 304 304 304 304 305 305 305 304 304 304 304 304 304 305 305 305 305 305 305 305 304 304 304 304 303 303 303 303 303 303 303 303 303 303 303 302 302 302 301 301 301 300 300 300 300 300 300 300 300 300 300 299 299 299 299 298 297 297 296 297 297 296 296 296 295 295 295 295 295
308 308 308 308 307 306 306 306 306 306 306 305 305 304 304 304 304 303 303 303 303 303 304 304 304 304 304 304 304 304 304 304 304 304 305 305 305 304 304 303 303 303 303 302 302 302 302 302 302 301 302 302 302 302 302 302 302 301 300 300 300 300 300 300 300 300 299 299 299 299 299 299 298 297 296 295 295 296 297 297 297 296 296 296 295 295 295
307 307 308 308 307 306 306 306 306 305 305 305 304 304 303 303 303 303 302 302 302 303 303 303 303 304 304 304 304 304 304 304 304 304 304 304 304 304 303 302 302 302 302 302 301 302 301 301 301 301 301 302 302 302 302 302 302 301 300 300 299 299 299 299 299 299 299 299 299 299 298 298 297 296 296 294 294 296 297 297 297 297 297 296 296 296 296
306 307 307 307 306 306 306 305 305 304 304 304 303 303 303 303 302 302 302 302 302 302 302 303 303 303 304 304 304 304 304 304 304 303 303 303 303 303 302 302 302 302 302 302 302 302 302 302 301 301 301 301 301 301 301 300 300 300 300 299 299 299 299 299 299 299 299 299 299 298 298 297 297 297 296 295 295 296 296 297 297 297 297 296 296 296 296
306 306 307 306 305 305 305 305 304 304 303 303 303 303 302 302 302 302 302 302 302 302 302 303 303 303 304 304 304 304 304 303 303 302 302 302 302 302 302 301 301 302 302 302 301 301 301 301 301 301 301 301 301 301 301 299 298 298 299 299 298 298 298 298 298 299 299 299 298 298 298 297 297 297 296 296 296 296 296 297 297 297 297 296 296 295 295
305 305 305 305 305 304 304 304 304 303 303 303 303 302 302 302 302 302 302 301 301 302 302 302 303 303 304 304 303 303 302 302 302 302 302 302 302 302 301 301 301 301 301 301 301 301 300 300 300 300 301 301 301 301 301 300 299 299 299 298 298 298 298 297 298 298 298 298 298 297 297 297 297 297 296 296 296 296 296 296 296 296 296 296 295 295 295
305 304 304 304 304 304 303 303 303 303 303 303 303 302 302 302 301 301 301 301 301 301 301 302 303 303 303 303 303 302 302 301 301 301 301 301 301 301 301 301 301 301 301 300 300 300 300 300 299 299 299 300 301 301 300 300 299 299 299 298 298 298 298 298 298 298 297 297 297 296 296 297 297 297 296 296 296 296 296 296 296 296 295 295 295 295 295
304 304 304 304 304 303 303 303 303 302 302 302 302 302 301 301 301 301 301 301 300 300 301 301 302 302 302 302 302 301 301 301 301 301 301 301 301 301 301 301 301 301 300 300 300 300 300 300 299 298 298 299 300 300 300 300 299 299 298 298 299 299 299 298 298 298 298 297 296 296 296 296 296 296 296 296 296 296 296 296 296 296 295 295 295 295 295
304 304 304 304 303 304 304 303 303 302 302 302 301 301 300 300 300 300 300 300 300 300 300 301 301 301 301 301 301 301 301 301 301 301 301 301 301 301 300 300 300 300 300 300 300 300 300 299 298 298 299 299 299 299 299 299 298 298 298 298 298 298 298 298 298 298 298 297 296 296 296 296 296 296 296 296 296 296 296 296 296 296 296 295 295 295 295
303 303 304 303 303 303 303 303 302 302 302 302 301 301 300 300 300 300 300 300 300 300 300 300 301 301 301 301 300 300 301 301 300 301 301 301 301 300 300 300 300 300 300 300 300 300 300 299 298 299 300 299 299 299 298 298 297 297 297 296 296 296 297 297 297 297 297 296 296 296 296 296 296 296 296 296 296 296 296 296 296 296 296 296 295 295 295
303 303 303 303 303 302 302 302 302 302 302 302 301 301 300 300 300 300 299 299 300 300 300 300 300 300 300 300 300 300 300 300 300 300 300 300 300 300 300 300 300 300 300 300 300 300 300 299 299 300 300 299 299 299 298 298 297 297 297 297 297 297 297 297 297 297 297 296 296 297 296 296 296 296 296 296 296 296 296 296 296 296 296 296 296 296 296
302 302 303 303 303 302 302 302 302 302 301 301 301 301 300 300 300 299 299 299 299 300 300 300 300 300 300 300 300 300 300 300 300 300 300 300 300 300 300 300 300 300 300 300 300 300 300 300 300 300 300 300 299 299 299 298 298 298 298 297 298 298 298 298 297 297 297 297 297 296 296 296 296 296 296 296 296 296 296 296 296 296 296 296 296 296 295
301 302 302 302 302 302 301 301 301 301 301 300 300 300 300 299 299 298 298 298 299 299 299 299 300 300 300 300 300 300 300 300 300 300 300 300 300 300 300 300 300 300 300 299 300 300 300 300 300 300 300 300 299 299 299 299 299 299 298 298 297 297 297 297 298 297 297 297 297 296 296 296 296 296 296 296 296 296 296 296 296 296 296 296 296 296 296
301 301 301 301 301 301 301 301 301 300 300 300 299 299 298 298 299 298 298 299 299 299 299 300 300 300 300 300 300 300 300 300 300 300 300 300 300 300 300 300 300 300 300 299 300 300 300 300 300 300 300 300 299 299 299 299 299 299 299 298 298 297 297 297 297 298 297 297 296 296 296 296 296 296 296 296 296 296 296 296 296 296 296 296 296 296 295
300 301 301 301 301 301 300 300 300 300 299 299 299 298 298 298 299 299 299 299 299 299 300 300 300 300 300 300 300 300 300 300 300 300 300 299 299 299 299 299 300 299 299 299 299 299 299 299 299 299 299 299 299 299 299 299 299 298 298 298 298 298 298 298 297 297 297 297 297 296 296 296 296 296 296 296 296 296 296 296 296 296 296 296 296 295 295
300 300 300 300 300 300 300 300 300 300 299 298 298 298 298 298 299 299 300 300 300 300 300 300 300 300 300 300 300 300 300 300 300 299 299 299 299 299 299 299 299 299 299 300 299 299 299 299 299 298 299 299 299 299 299 299 299 299 299 298 298 298 298 298 298 298 297 297 297 297 297 297 297 296 296 296 296 296 296 296 296 296 296 296 296 296 295
300 300 299 300 300 300 299 299 299 299 299 298 298 299 299 299 299 300 299 300 300 300 300 300 300 300 300 300 300 300 300 299 299 299 299 299 299 299 299 299 299 299 300 299 299 299 299 299 298 298 298 299 299 299 299 299 299 299 299 299 298 298 298 298 298 297 297 297 297 297 297 297 297 297 297 297 296 296 296 296 296 296 296 296 296 296 296
300 299 299 299 299 299 298 298 298 299 299 299 299 299 299 299 299 300 300 300 300 300 300 300 300 300 300 300 300 300 299 299 299 299 299 299 299 299 299 299 299 298 298 298 298 298 298 297 296 297 299 299 299 299 299 298 298 298 298 298 298 298 299 298 298 298 298 297 297 297 297 297 297 297 297 297 297 297 296 296 296 296 296 296 296 296 295
300 299 299 299 299 299 299 299 299 299 299 299 299 298 299 299 300 300 300 300 300 300 300 300 300 299 299 299 299 299 299 299 299 298 298 298 298 298 297 297 297 296 296 296 297 297 297 296 295 296 298 299 299 299 299 298 298 299 298 297 297 297 298 298 298 298 298 298 297 297 297 297 297 297 297 297 297 297 296 296 296 296 296 296 296 295 295
299 299 299 300 299 299 299 299 299 299 299 298 298 298 298 299 299 299 299 299 299 299 298 298 298 297 297 298 298 298 298 297 297 296 296 296 296 295 295 295 295 295 295 296 296 297 297 296 296 296 296 296 297 298 298 299 299 299 298 297 297 297 297 298 298 298 298 298 298 297 297 297 297 297 297 297 297 297 296 296 296 296 296 296 296 295 295
299 299 299 299 299 299 299 299 299 299 298 297 297 297 298 299 299 299 298 298 298 297 296 296 295 295 295 295 296 296 296 296 296 296 296 296 296 295 294 294 294 294 294 295 295 296 297 297 297 296 296 295 295 295 297 299 299 299 298 298 297 297 297 298 297 297 298 298 297 297 297 297 297 297 297 296 296 296 296 296 296 296 296 296 296 296 296
299 300 300 300 299 299 299 299 299 298 297 297 297 298 298 298 299 298 297 297 297 296 296 295 294 294 294 295 296 297 297 297 297 298 298 297 297 297 296 295 294 294 294 294 294 295 296 296 296 296 297 297 296 294 295 298 299 299 298 297 298 298 298 298 298 297 297 297 297 297 297 297 297 297 297 296 296 296 296 296 296 296 296 296 296 296 296
300 300 300 300 300 299 299 298 298 298 297 297 297 297 298 298 297 297 296 297 297 297 296 295 294 294 296 297 298 299 299 299 299 299 299 299 298 298 297 296 295 294 294 294 294 294 295 296 296 296 297 298 298 297 296 297 299 299 298 298 298 298 298 298 298 298 297 297 297 297 297 297 297 297 297 297 297 297 297 297 296 296 296 296 296 296 296
300 300 300 300 300 300 299 298 298 298 298 298 297 297 297 297 297 297 297 297 297 297 296 295 293 294 297 299 299 298 299 300 299 299 299 299 299 299 298 297 296 296 296 296 295 295 295 296 297 297 297 298 299 298 297 296 297 298 298 298 298 298 298 298 298 298 298 298 297 297 297 297 297 297 297 297 297 297 297 297 296 296 296 296 296 296 296
300 300 300 300 300 300 299 298 298 298 298 298 297 297 296 296 297 297 298 298 297 297 297 297 295 294 296 297 297 298 299 299 299 299 299 299 299 300 299 299 298 299 298 297 297 296 296 296 297 297 297 297 298 298 298 297 296 296 298 298 299 298 298 298 298 298 298 297 297 297 297 297 297 297 297 297 297 296 296 296 296 296 296 296 296 296 296
300 300 300 300 300 300 299 299 299 298 298 298 297 297 296 296 297 297 298 298 297 297 297 298 297 297 297 298 298 299 299 299 299 299 299 299 299 300 300 299 299 299 299 299 298 298 297 297 297 297 297 297 297 297 297 297 296 296 297 298 299 299 298 298 298 298 298 297 297 297 297 297 297 297 297 297 297 296 296 296 296 296 296 296 296 296 296
Wind_Speed
6 7 7 5 3 3 1 3 6 7 2 7 6 4 7 8 6 5 10 15 15 12 12 13 14 16 17 17 23 26 26 25 24 25 27 27 25 25 25 24 22 23 24 23 21 19 16 14 13 11 10 11 12 11 9 7 6 5 4 3 3 6 7 6 5 6 6 7 10 10 9 8 9 10 11 12 12 12 13 12 9 10 11 11 11 10 8
7 10 10 8 6 4 3 4 5 6 2 6 6 3 4 6 7 11 15 14 11 11 11 10 12 18 22 24 27 29 28 27 26 25 27 27 24 25 25 23 22 23 22 19 18 17 16 15 13 11 11 13 12 10 8 7 6 6 5 3 4 7 8 8 7 7 6 8 11 11 10 11 12 13 14 14 13 13 13 13 11 11 11 11 11 10 8
4 7 11 10 7 4 3 4 5 8 7 7 7 6 6 5 6 12 15 10 5 6 10 13 15 20 23 23 24 26 26 28 28 26 25 26 25 25 25 23 21 19 18 17 16 15 15 15 13 13 15 15 11 8 7 6 6 6 6 5 6 8 9 8 7 7 9 11 12 12 13 15 16 17 17 16 16 15 13 13 12 12 11 11 11 10 9
2 4 8 8 6 6 4 5 7 7 4 4 4 2 4 7 11 14 14 8 4 6 11 15 17 18 19 19 21 24 24 26 28 26 24 25 26 26 25 22 19 17 16 17 16 13 14 14 15 16 17 15 11 8 6 6 6 6 5 5 6 7 8 8 6 7 10 13 13 14 16 17 18 18 18 18 18 17 17 16 16 15 14 14 13 12 10
2 4 6 7 6 6 3 3 4 5 3 2 3 2 3 10 14 12 9 8 8 11 14 13 13 13 14 17 20 23 24 25 25 25 25 26 26 26 25 22 19 18 18 17 16 15 15 16 17 17 16 14 11 7 5 6 5 4 5 5 6 7 8 9 8 9 11 13 14 15 17 18 17 18 19 20 20 21 20 21 22 23 23 21 18 15 13
1 2 5 7 4 0 3 3 3 4 3 3 5 5 5 6 9 7 6 9 12 14 15 14 13 13 14 19 22 24 28 29 26 25 26 27 26 24 23 21 19 19 18 17 17 18 18 18 18 17 15 12 9 6 5 5 4 4 3 5 6 8 9 9 10 10 12 13 14 15 16 16 16 17 19 20 21 22 22 23 25 26 25 24 22 18 16
2 0 5 4 1 4 4 4 6 3 3 6 7 10 8 4 10 14 13 13 13 13 15 17 19 20 19 21 22 24 28 32 32 30 28 27 26 23 21 19 19 19 17 16 18 20 19 18 17 16 13 9 6 5 5 5 5 4 3 5 7 9 9 9 10 11 12 13 13 13 14 14 15 17 18 19 21 21 22 23 24 24 25 26 25 23 20
2 2 4 2 3 4 4 5 6 2 5 5 5 9 9 5 8 16 14 11 11 14 18 22 26 28 27 23 19 21 26 31 34 33 29 27 26 23 19 19 20 18 15 16 18 19 18 16 14 13 11 7 4 4 6 5 5 3 4 6 8 9 8 9 10 10 12 13 13 12 12 13 15 17 18 19 20 20 20 21 21 22 23 25 26 26 24
2 4 2 1 2 5 5 2 3 3 2 2 1 3 3 5 3 12 14 13 12 15 20 25 30 32 27 18 13 18 26 29 31 31 28 25 24 22 20 21 20 18 16 16 18 17 16 14 12 11 9 4 1 3 5 5 4 4 6 8 9 9 8 9 10 11 12 12 12 12 12 13 15 17 18 18 19 19 19 19 20 21 22 24 25 26 25
2 4 2 2 2 2 3 2 5 7 2 4 4 4 1 3 1 11 17 16 15 16 19 25 30 28 18 7 6 17 26 29 30 28 25 24 23 22 22 22 21 19 17 17 17 15 14 13 10 8 6 2 0 3 6 6 6 7 8 9 9 9 9 10 11 12 12 12 12 12 13 14 16 17 18 18 19 19 18 19 20 21 22 23 24 25 25
2 4 3 3 2 3 4 4 5 5 3 2 5 4 1 1 4 12 17 18 20 22 23 26 25 18 9 4 8 20 28 28 28 27 25 25 23 21 21 21 20 19 18 18 16 14 13 11 9 6 3 0 1 6 10 9 8 9 10 10 9 9 11 12 12 12 12 12 13 13 14 14 15 17 18 19 19 19 19 20 20 20 21 22 24 25 25
3 3 2 2 2 3 3 4 5 6 4 1 5 3 4 7 12 16 18 19 24 30 32 28 18 7 7 12 16 25 30 28 27 28 27 26 25 24 23 21 19 19 19 18 16 13 12 10 7 4 1 1 5 11 14 13 12 12 12 11 10 10 13 15 14 13 13 13 13 14 15 15 17 18 20 20 20 20 21 21 21 21 22 23 25 26 25
3 3 2 1 2 3 3 4 6 7 2 2 4 4 6 14 20 23 24 21 22 28 33 26 11 5 14 26 29 30 30 29 29 29 28 27 26 25 24 21 20 21 20 17 16 14 12 9 6 4 3 6 11 15 16 18 18 17 14 12 12 14 16 18 18 17 16 15 15 16 16 16 18 20 20 20 20 20 21 22 22 22 23 24 26 27 27
2 2 3 1 2 3 3 2 4 4 2 2 3 3 12 24 26 24 28 26 21 21 22 20 18 21 29 34 34 31 30 30 31 31 30 28 26 25 24 22 21 21 19 17 16 15 13 10 7 6 7 10 14 17 20 22 21 19 18 17 17 18 20 21 20 20 20 18 17 17 17 18 20 21 20 19 19 19 20 20 21 22 24 24 25 27 27
2 2 2 2 2 3 2 2 1 1 1 5 7 11 17 26 28 26 27 28 25 21 19 22 30 35 36 33 32 32 31 31 32 31 29 28 27 26 25 23 21 20 19 18 17 16 14 13 10 10 12 17 20 21 23 23 22 22 23 22 22 23 23 23 22 21 20 19 19 20 20 21 22 22 21 19 19 19 20 20 22 23 25 25 25 26 27
2 2 2 2 2 4 1 3 3 1 3 10 19 23 21 23 29 29 27 26 25 24 25 32 37 37 35 33 32 32 32 32 32 31 29 28 28 26 25 23 21 19 19 19 19 18 16 14 13 14 16 21 23 24 24 23 23 24 25 25 25 25 25 24 24 23 22 21 21 21 22 22 22 23 23 21 20 21 21 21 22 24 25 25 25 25 26
2 2 1 0 3 6 7 7 7 10 13 16 23 28 26 24 27 29 28 26 25 25 30 36 38 35 34 34 33 32 32 31 31 30 29 28 27 25 24 23 20 19 19 20 20 19 17 16 15 16 18 22 25 26 24 23 23 24 24 24 24 24 24 24 24 24 24 24 23 23 22 22 22 23 22 21 21 20 20 20 21 23 24 24 24 25 26
3 5 5 4 7 14 17 16 15 17 20 20 22 26 27 25 25 28 30 28 27 29 34 36 36 34 34 35 34 33 32 30 30 31 30 28 26 25 24 23 21 21 21 20 19 19 19 17 16 17 20 23 27 27 25 24 24 25 24 24 24 23 22 22 21 21 22 23 23 23 22 22 22 22 22 22 22 22 22 23 24 26 26 27 28 29 29
3 3 3 4 9 15 18 19 19 20 21 21 23 25 26 25 25 28 29 29 30 32 34 36 35 34 34 36 35 33 31 31 31 32 32 29 27 25 24 23 21 21 21 20 20 20 20 18 17 18 20 23 24 23 23 23 25 25 25 26 26 25 23 22 21 20 21 22 23 24 25 25 26 27 27 27 28 28 28 28 29 30 30 31 31 32 32
3 2 3 8 15 17 18 20 20 21 21 21 22 24 26 26 26 27 28 29 30 32 33 35 37 36 35 36 37 35 32 31 31 32 31 29 26 24 22 20 19 19 20 21 20 19 19 19 18 18 19 20 19 18 19 20 21 23 25 27 28 27 26 24 23 23 23 24 25 27 29 30 30 31 31 30 31 32 31 29 30 30 31 31 31 30 30
5 4 6 11 16 14 13 19 22 21 21 22 23 25 26 28 29 29 28 29 30 31 32 35 37 37 35 36 37 37 35 33 31 31 30 28 25 22 21 21 21 22 23 23 21 20 21 21 20 18 18 18 16 14 14 15 16 19 23 25 28 29 28 27 26 26 25 26 26 28 29 31 31 31 30 29 30 30 29 28 28 28 28 28 27 26 27
4 3 5 8 8 6 8 18 22 21 21 22 24 26 27 28 30 30 29 28 29 30 32 34 36 37 36 35 36 37 35 33 32 31 30 27 24 23 25 27 28 27 27 26 25 24 23 23 22 20 18 17 15 13 12 12 12 15 19 22 25 27 28 28 28 27 27 27 26 26 27 28 30 31 30 28 27 27 26 25 25 24 25 25 24 23 24
4 5 9 12 12 10 12 20 23 21 20 21 23 25 26 27 29 30 30 30 30 29 30 32 34 36 36 36 37 36 34 33 32 31 29 27 26 28 30 29 27 25 25 25 25 25 24 23 22 20 17 15 15 15 15 14 13 14 17 20 23 25 25 25 26 26 26 27 26 26 26 26 27 29 30 30 28 27 26 25 24 23 23 24 23 22 23
8 12 17 20 20 18 18 22 24 20 18 19 22 24 25 26 27 28 29 30 30 30 30 29 31 34 35 36 36 36 34 32 31 29 28 29 30 29 27 24 23 22 22 22 23 24 24 23 22 20 17 16 15 16 16 17 17 18 19 20 23 24 23 22 22 23 24 24 25 25 25 24 24 25 26 28 29 29 28 27 26 25 24 23 22 22 22
16 18 20 22 25 24 22 22 22 18 16 18 22 24 24 24 25 26 27 29 29 30 30 29 30 32 34 34 35 35 34 31 30 30 30 30 28 26 24 24 23 22 20 20 21 22 22 22 21 20 18 17 17 17 16 17 18 19 20 21 22 23 22 21 20 19 19 20 22 23 23 23 23 23 23 25 27 28 28 28 28 27 25 24 22 21 21
23 24 25 25 26 25 23 21 20 18 17 19 21 22 21 22 24 25 26 27 27 28 29 30 30 31 32 34 34 34 32 31 30 30 30 28 26 26 27 27 25 22 21 21 21 21 22 22 21 20 19 18 18 17 16 16 16 17 18 19 20 21 21 19 18 17 17 17 18 19 20 20 21 21 21 21 22 24 25 26 27 27 26 25 23 22 21
25 27 27 23 20 19 20 21 21 21 20 19 20 21 21 22 23 24 24 25 25 25 27 29 31 32 32 33 33 33 32 31 30 30 29 28 27 28 28 26 23 22 21 21 21 21 22 22 21 20 19 18 17 17 16 15 15 16 16 17 18 20 20 19 18 17 17 16 16 16 16 17 18 19 19 18 18 20 22 23 25 26 25 24 23 22 21
24 24 23 21 18 19 21 22 22 22 21 19 20 21 22 22 23 24 24 24 24 25 27 29 32 34 33 33 33 33 32 31 31 30 29 28 28 29 28 24 21 22 23 23 23 23 23 22 21 20 19 18 18 18 17 15 14 15 15 16 17 18 19 19 19 19 18 17 17 16 16 17 17 17 17 16 16 18 19 20 21 22 22 22 22 21 20
16 16 19 22 24 25 25 24 23 22 22 21 21 23 24 25 25 25 25 25 25 27 29 30 32 34 34 34 34 34 34 33 31 30 28 27 28 28 25 21 20 23 24 23 22 22 21 20 19 19 19 18 17 16 15 15 15 15 14 14 16 17 18 18 17 17 17 17 17 17 17 17 17 17 17 17 17 18 18 18 18 18 18 18 19 19 19
10 14 19 23 26 27 28 27 25 25 25 24 23 24 24 25 26 26 26 25 26 29 31 32 32 33 34 35 34 34 34 33 31 28 27 26 27 27 24 21 22 23 23 21 19 18 17 17 17 18 18 17 15 14 13 13 15 16 16 15 16 16 17 17 16 15 15 16 16 16 16 16 16 17 17 18 19 18 17 16 16 17 17 16 16 18 18
10 16 22 25 27 28 29 29 28 28 27 27 26 26 26 25 26 27 26 24 25 29 31 32 33 33 34 34 33 33 32 31 29 28 27 25 25 26 25 23 23 23 22 19 17 16 16 17 17 18 18 17 15 13 11 12 16 18 18 17 17 17 17 16 15 15 15 15 14 14 14 14 14 15 17 19 19 19 17 15 14 14 15 15 16 18 19
15 18 22 25 26 27 28 29 29 29 28 27 27 27 27 27 27 28 26 24 25 28 31 32 33 33 33 34 34 33 31 28 27 26 25 23 25 26 25 22 22 21 19 17 16 16 17 18 17 17 17 17 15 12 10 11 15 17 17 17 18 18 19 18 18 17 16 14 13 12 12 13 14 15 17 18 19 19 18 16 15 15 15 15 17 17 18
20 20 20 23 25 27 28 28 28 28 28 28 27 27 27 27 27 27 26 25 25 26 29 32 34 33 33 35 35 32 29 27 26 25 24 25 26 24 21 20 21 20 18 16 15 15 17 17 16 16 16 16 15 13 11 12 13 14 15 16 17 18 18 17 18 18 17 16 14 12 11 12 14 15 16 17 18 18 18 18 18 17 17 16 15 15 15
19 20 22 24 26 27 28 28 28 28 28 27 27 27 28 28 28 27 27 26 26 25 26 30 33 34 34 34 32 28 26 27 27 27 27 27 25 21 20 21 23 21 19 17 17 17 16 15 15 16 17 17 16 15 14 13 13 14 16 17 17 16 16 15 16 16 16 16 15 14 12 11 11 12 15 16 16 16 15 16 16 16 16 16 15 13 13
18 20 22 24 25 27 28 28 28 29 29 29 28 28 28 28 29 29 28 27 26 24 26 30 33 32 31 30 28 26 26 27 27 26 26 25 23 22 24 25 24 23 21 19 18 17 16 15 17 20 20 19 18 17 16 15 15 15 15 16 15 15 15 14 14 13 13 14 16 16 14 12 11 11 12 14 14 13 13 13 13 13 14 15 16 15 14
19 20 22 23 24 26 28 29 29 30 30 30 29 28 28 28 28 28 28 27 25 26 28 31 31 30 29 28 28 28 28 27 25 23 22 23 25 26 25 24 24 24 23 21 19 18 16 16 18 20 20 20 20 18 16 14 13 13 13 15 16 16 16 15 13 12 12 14 17 17 15 14 13 12 12 12 13 12 11 10 10 10 11 12 14 14 13
19 21 23 23 23 24 26 27 28 28 28 27 27 26 27 27 26 26 27 27 27 28 29 30 28 28 28 28 28 28 28 26 23 22 23 27 29 27 24 22 22 22 22 22 21 19 17 16 15 16 17 19 18 16 15 14 14 13 14 16 18 17 16 15 15 14 14 14 15 15 15 14 14 13 13 12 11 11 9 8 8 8 8 8 11 12 12
19 21 22 22 23 24 25 25 25 24 24 25 24 23 23 24 25 26 28 29 28 28 29 28 27 27 28 28 28 27 25 23 21 22 24 25 25 23 22 21 20 20 21 22 21 20 19 17 15 15 16 16 15 15 15 15 15 15 15 15 15 15 14 13 13 13 12 12 12 14 14 13 12 11 11 11 10 8 6 5 5 6 6 6 7 9 9
20 21 20 22 24 24 23 23 23 22 22 23 23 22 22 22 24 26 27 27 27 28 28 28 27 27 28 28 27 25 23 21 21 22 23 23 23 23 23 21 19 18 18 19 20 21 20 19 17 16 15 14 14 16 15 14 14 15 13 11 11 11 10 10 10 11 10 10 10 12 13 12 10 9 9 8 8 8 6 5 5 5 4 3 5 6 7
21 21 21 23 24 23 22 22 22 21 20 20 21 23 24 24 24 26 27 27 27 28 28 27 26 26 26 24 23 23 23 22 23 24 24 23 23 24 24 22 20 18 17 17 18 19 20 19 17 16 15 16 16 16 14 13 14 15 13 10 9 9 9 9 9 9 9 10 10 10 10 9 9 9 8 8 8 8 7 6 6 5 3 2 2 2 4
20 22 23 23 23 23 23 22 22 21 20 20 20 22 24 25 25 26 27 26 25 25 24 24 23 23 22 22 22 24 25 25 25 25 23 22 22 24 24 22 21 20 18 17 17 16 17 17 15 15 17 19 18 15 14 14 14 13 12 10 9 9 9 9 9 9 9 10 10 10 9 7 6 6 5 5 7 7 7 6 5 4 3 2 2 1 1
22 23 22 22 23 24 23 22 21 21 21 21 22 23 25 25 25 25 25 24 22 21 22 23 24 23 22 22 23 24 24 24 24 23 22 20 21 23 24 22 21 21 21 19 18 18 19 18 15 16 21 23 19 16 17 17 15 13 12 11 11 11 10 10 10 9 8 8 10 10 10 9 6 4 3 4 5 6 5 4 3 2 2 2 2 2 2
23 22 22 23 25 25 23 21 20 21 23 25 26 25 23 22 23 24 23 22 20 19 21 23 25 25 24 24 24 24 24 24 24 22 21 21 22 23 22 21 20 20 20 19 19 21 22 19 17 20 25 24 20 18 18 17 15 15 14 12 12 12 11 11 10 9 8 9 10 12 12 10 8 5 3 4 5 4 4 3 3 3 3 3 4 4 5
25 25 26 27 27 26 24 23 24 25 26 27 27 23 19 18 20 23 22 20 20 22 23 24 26 26 26 26 26 25 26 26 24 22 23 24 24 23 22 21 19 19 19 18 19 22 22 20 19 24 27 24 20 19 18 16 15 15 14 13 13 12 12 12 11 9 8 9 10 11 11 10 8 6 5 5 6 6 6 6 6 6 6 6 8 8 8
28 27 27 26 24 24 25 26 25 25 25 26 24 20 18 17 19 22 22 21 22 23 23 22 23 23 24 25 26 25 24 23 23 22 24 25 24 23 21 19 17 17 18 19 20 22 21 19 19 23 24 23 22 21 18 16 16 14 12 11 12 14 14 15 14 12 9 9 9 10 10 9 9 8 7 7 7 7 7 7 7 7 7 7 8 8 7
26 24 23 21 19 20 23 25 24 23 23 23 22 21 21 19 19 20 19 19 19 19 18 17 18 20 21 23 24 23 21 20 21 21 21 20 18 17 17 16 15 16 18 20 21 21 20 18 17 19 19 19 21 21 19 17 16 15 12 9 10 12 14 15 15 14 13 11 10 11 11 10 9 8 8 9 9 9 9 9 9 8 7 6 6 6 6
24 22 21 19 18 19 22 23 23 23 23 23 22 23 23 21 19 18 17 16 15 15 15 15 16 18 20 21 23 23 22 23 23 21 18 15 13 13 13 13 13 15 18 19 20 19 18 16 16 15 12 12 16 20 21 19 17 16 14 11 10 11 13 13 13 13 12 11 10 10 11 11 9 9 9 9 9 9 9 9 8 7 8 8 8 7 7
23 23 22 20 19 21 22 22 23 24 25 24 23 23 22 21 20 20 19 18 16 14 13 13 16 20 22 23 23 23 22 22 21 19 15 13 13 13 12 12 13 14 16 18 19 18 17 16 16 14 11 8 10 16 21 22 20 17 15 14 13 13 13 13 12 11 10 10 9 9 10 10 10 10 10 10 10 10 11 10 9 9 10 10 9 9 9
23 22 20 19 21 23 24 23 23 24 25 24 23 22 22 22 22 22 21 19 17 14 12 12 17 22 26 25 23 20 19 17 16 14 12 11 12 12 13 13 13 13 14 16 17 17 17 16 16 15 14 11 10 12 17 22 23 20 17 17 16 15 15 15 14 12 11 11 11 10 11 11 12 12 13 13 13 13 13 13 13 12 11 11 10 10 10
23 22 21 21 24 25 24 23 23 23 23 24 23 22 23 24 24 23 21 20 17 15 13 14 18 23 26 24 20 18 18 16 13 11 10 9 10 11 13 13 12 12 12 13 14 15 16 17 17 17 16 15 13 13 15 19 22 23 20 19 19 18 17 17 16 15 14 14 14 13 13 14 14 14 14 15 15 15 15 15 15 14 14 13 13 13 13
26 24 23 24 24 23 22 22 22 21 22 23 22 22 24 25 24 22 21 20 19 18 16 15 17 22 24 22 18 17 17 15 13 12 12 11 11 12 14 14 13 12 11 12 12 13 14 15 16 16 16 16 16 15 15 16 19 22 23 22 20 19 17 16 15 14 13 14 15 15 14 14 13 13 14 15 15 15 15 14 14 14 14 15 15 15 15
26 24 23 24 23 21 21 22 21 20 20 22 23 24 25 25 23 22 22 22 20 19 19 18 18 20 21 19 17 15 14 14 13 13 14 15 15 14 15 16 16 14 12 11 11 12 13 12 13 14 15 16 16 16 15 15 16 19 22 23 23 20 18 16 15 13 12 13 14 14 14 14 13 13 14 14 14 14 14 13 13 14 14 15 15 16 16
Wind_Direction
111 89 60 20 50 91 3 7 352 315 257 134 136 180 192 170 148 175 182 159 151 163 165 158 156 150 146 146 145 143 142 138 133 130 128 127 126 126 126 125 122 119 120 122 123 123 124 124 121 115 107 110 117 117 110 104 93 78 62 41 76 110 114 102 79 64 58 60 67 68 56 37 17 5 0 358 358 2 5 6 359 345 346 351 351 350 350
86 79 71 52 58 61 356 359 9 349 20 125 127 129 158 172 167 161 161 157 150 156 158 150 145 142 139 139 142 143 143 139 134 131 130 130 128 127 127 125 122 121 123 126 127 126 124 125 123 117 121 128 128 118 106 95 75 55 34 38 100 111 101 90 79 67 62 69 73 68 51 39 31 25 24 22 22 22 18 14 6 354 351 352 354 0 3
66 72 79 64 52 63 22 354 12 19 42 84 95 98 103 100 118 132 133 125 107 125 130 126 131 136 136 139 143 145 146 142 137 135 134 132 130 129 130 130 128 126 125 126 130 130 126 128 130 132 139 140 131 114 104 84 60 46 31 46 90 101 98 94 85 71 71 75 73 63 54 51 49 46 44 42 41 40 34 26 15 3 357 357 5 16 17
16 20 76 72 46 46 26 353 4 13 34 85 100 134 135 124 125 125 123 121 127 131 125 125 134 140 142 144 144 144 145 143 140 139 136 132 132 133 134 136 137 136 130 124 124 126 131 139 143 144 146 142 131 122 109 78 60 44 33 54 77 85 94 97 85 76 79 79 74 66 64 63 61 58 55 53 52 49 44 41 36 30 29 29 33 36 35
9 351 81 82 49 37 356 308 338 343 342 69 73 35 99 131 138 139 144 154 153 140 133 132 138 143 143 142 142 144 144 141 139 137 134 131 132 133 135 137 139 137 129 121 117 120 130 141 146 149 150 141 131 124 100 75 55 22 32 71 78 78 91 95 85 80 82 81 78 75 75 74 69 64 60 57 54 51 49 48 46 43 42 41 44 46 48
28 304 80 72 51 40 242 268 311 311 329 54 77 64 56 109 121 110 116 133 140 140 139 142 143 139 138 140 145 149 148 143 138 133 134 134 133 132 135 139 139 135 128 120 116 119 126 132 138 144 143 134 123 107 79 57 21 6 46 88 85 82 92 94 86 84 85 85 84 84 85 81 73 66 60 57 55 54 53 52 52 50 47 46 47 47 47
152 181 77 79 228 239 253 319 324 315 87 74 66 61 40 59 106 104 108 124 134 133 130 132 129 125 128 135 143 150 149 146 142 138 138 139 139 139 142 143 141 137 131 123 120 122 127 130 134 134 128 123 119 90 59 25 358 7 76 101 93 91 96 94 89 88 90 92 92 92 90 85 76 69 64 60 59 57 56 58 59 58 56 55 55 54 55
134 103 104 158 249 295 330 350 328 333 98 75 39 48 27 12 112 119 119 121 120 115 117 122 122 121 120 118 124 140 147 147 146 145 145 145 145 146 148 147 143 136 131 129 127 127 130 131 131 124 116 122 124 68 42 14 360 29 90 98 93 93 97 97 94 94 97 99 100 96 90 84 80 75 70 67 65 64 64 67 69 68 65 64 66 67 68
116 115 117 65 14 332 332 5 293 275 129 133 161 89 21 342 85 124 123 117 117 117 119 123 123 121 116 100 97 129 142 146 147 148 149 147 145 145 147 148 141 128 126 132 132 133 135 129 122 117 114 122 114 42 32 27 36 77 98 92 85 87 94 98 97 100 104 105 101 94 85 80 80 79 76 72 70 69 69 72 74 74 73 74 76 77 76
93 109 106 63 65 272 256 199 242 267 249 145 144 128 87 348 91 139 134 127 129 129 129 131 128 124 118 96 101 128 137 143 145 144 142 140 141 144 146 146 138 126 127 134 134 138 139 127 119 121 118 122 342 33 45 59 83 103 102 90 81 80 87 95 99 104 109 108 103 94 85 80 80 80 77 74 72 72 71 74 77 78 80 81 82 82 80
123 114 129 160 185 226 223 212 231 251 252 161 117 108 150 190 154 150 143 138 141 141 140 142 138 130 126 153 148 135 136 142 144 140 136 135 138 142 143 144 141 134 133 137 137 138 136 126 124 130 130 249 34 57 61 72 91 101 97 90 84 80 85 93 98 103 110 111 106 99 91 86 84 82 81 79 77 76 75 77 80 82 83 86 86 86 85
146 116 125 168 202 225 237 237 203 195 227 192 118 141 213 176 159 159 153 148 150 148 147 149 150 152 159 158 150 140 138 140 141 139 137 138 139 139 139 142 143 140 139 138 135 130 127 124 124 123 117 80 68 63 63 69 78 85 86 86 87 87 90 93 93 95 101 106 105 101 95 90 88 86 85 84 81 80 79 80 82 84 85 88 89 88 87
134 118 124 150 273 237 232 248 209 184 164 107 144 218 203 159 158 161 156 152 154 151 150 153 154 151 150 146 141 140 142 142 141 139 139 140 140 140 141 142 140 138 138 135 128 121 121 123 119 112 105 85 72 67 68 72 75 78 83 90 97 99 96 93 91 89 90 93 96 98 96 93 92 90 88 87 84 83 83 83 83 83 84 86 87 86 84
137 116 111 72 289 231 189 239 235 189 127 169 215 202 154 151 156 159 154 152 155 153 150 147 136 133 139 140 139 142 147 145 142 141 141 140 140 141 143 144 144 141 136 131 126 122 123 125 120 111 99 85 80 80 81 80 79 81 87 94 99 100 97 94 91 88 87 88 89 93 96 96 95 94 92 91 90 88 88 87 85 84 83 84 84 84 83
114 80 92 126 214 232 167 133 224 208 186 190 151 120 132 147 152 154 153 153 158 158 145 136 136 137 139 140 141 144 146 145 144 144 143 141 140 142 144 146 147 144 137 130 127 127 128 126 117 106 97 92 92 93 90 88 87 86 88 91 95 96 96 94 93 92 92 93 94 97 99 98 98 98 97 95 95 95 93 91 90 89 87 86 85 84 83
138 140 175 192 271 302 275 172 183 146 148 159 141 128 132 147 151 155 157 157 163 162 147 139 141 142 142 143 144 144 146 148 147 145 145 144 144 146 147 148 148 147 140 133 131 133 134 127 115 104 98 97 98 97 96 96 95 93 93 94 95 97 98 98 99 99 98 99 99 101 102 103 103 104 103 101 100 98 95 93 92 91 90 89 88 87 84
112 124 139 106 30 41 75 111 124 121 130 146 145 138 139 147 154 158 158 157 161 160 150 145 145 145 145 146 146 147 149 151 150 148 147 148 149 150 150 151 153 151 143 137 136 136 136 131 118 104 98 99 100 100 100 101 99 98 98 98 97 98 100 102 104 105 105 106 106 105 106 106 105 104 103 102 99 96 94 93 91 90 89 88 87 86 85
94 60 51 63 67 68 79 92 107 121 132 141 143 139 140 148 158 162 160 159 159 157 153 149 146 146 149 148 147 151 152 150 149 149 148 149 152 154 153 154 155 151 144 140 137 134 134 133 121 106 99 100 102 102 102 101 100 99 99 98 98 99 101 103 106 109 111 111 111 110 108 106 103 101 99 97 94 92 91 90 88 87 87 86 84 83 81
115 59 43 74 82 84 90 97 105 116 127 137 143 144 145 150 158 162 160 159 158 156 155 153 149 149 152 150 149 153 153 148 147 148 149 151 154 154 153 153 154 153 148 143 136 130 129 129 124 114 106 104 104 106 105 102 100 98 95 94 95 97 100 104 107 109 110 111 110 109 106 103 101 98 96 94 93 90 89 89 89 88 87 85 84 83 81
80 103 126 94 86 92 102 109 112 115 122 131 138 142 146 150 154 157 158 158 157 155 156 157 155 153 154 154 154 155 153 149 147 149 151 153 154 153 154 154 156 157 154 148 141 134 128 126 125 123 116 111 112 113 111 107 104 99 94 91 92 94 97 101 104 105 106 107 107 106 105 103 101 98 96 95 93 91 88 88 88 88 87 86 84 83 82
90 113 135 108 88 80 94 109 116 122 128 132 133 136 142 146 147 149 152 157 161 160 158 158 156 154 155 157 157 156 153 149 148 150 151 151 151 152 150 146 143 142 141 141 139 136 133 129 126 123 120 119 122 122 119 117 114 106 98 94 92 93 94 96 99 102 104 105 105 106 105 104 101 97 95 93 93 91 90 88 87 86 86 84 82 81 81
149 164 172 144 111 88 108 118 122 128 133 134 135 136 139 142 144 147 147 150 157 161 161 160 157 154 155 157 157 155 152 150 150 151 150 147 147 145 140 135 133 130 127 127 126 128 134 136 133 127 122 121 124 128 132 136 132 120 109 101 96 95 93 93 95 97 98 99 100 101 102 102 100 98 94 91 91 90 89 87 86 85 83 81 77 76 77
166 155 148 134 120 121 133 131 130 133 136 137 140 142 141 143 148 152 151 149 150 152 156 160 160 157 155 156 156 155 152 151 152 152 150 148 147 144 139 136 134 132 130 129 127 128 132 136 137 136 134 131 129 128 130 135 135 128 120 111 104 100 97 96 95 94 94 94 94 94 95 96 97 97 96 93 90 88 88 88 86 83 82 81 79 76 74
113 132 139 134 128 132 140 138 135 135 138 141 143 145 146 147 151 155 157 155 154 153 154 158 161 160 157 157 158 156 154 153 152 151 149 148 147 145 143 142 142 142 141 141 140 137 135 135 136 137 139 142 140 133 129 129 128 125 121 117 111 107 104 101 100 97 94 92 92 91 91 91 90 92 94 93 92 89 88 87 86 84 83 82 81 80 77
130 135 140 137 134 134 136 136 135 137 143 144 142 144 147 150 152 156 157 156 158 158 157 157 159 160 159 158 159 158 156 154 153 151 150 149 148 148 146 145 144 144 144 144 144 144 144 144 142 138 136 139 142 139 133 129 126 123 121 119 117 115 112 108 106 103 99 96 94 92 91 90 88 86 86 89 91 91 89 87 85 84 84 83 82 81 79
133 135 134 129 129 133 134 132 131 137 146 147 142 143 147 150 152 155 155 156 159 160 160 158 159 159 159 158 157 156 154 153 154 154 154 153 153 151 148 143 141 141 141 142 143 145 147 148 147 144 140 139 142 143 138 131 127 124 122 121 122 123 122 119 114 109 106 104 101 98 96 92 88 84 80 80 84 88 90 88 87 85 84 85 84 82 79
131 136 134 126 123 133 140 138 136 141 148 148 144 144 148 150 151 152 152 155 157 159 159 160 159 157 156 156 155 154 153 153 154 156 157 157 157 153 147 142 143 147 148 147 146 148 150 149 148 146 142 141 145 148 144 138 131 126 123 124 125 125 124 124 122 117 114 114 113 109 104 97 87 80 76 76 81 86 88 88 88 89 88 87 85 82 78
132 142 146 144 142 145 144 143 144 147 148 149 148 148 148 148 149 150 151 154 157 158 158 159 158 157 157 155 154 153 153 153 153 155 157 159 158 152 145 142 145 151 151 148 146 146 147 146 144 141 140 142 145 146 146 144 140 135 132 131 131 129 125 123 122 120 118 118 117 113 107 99 88 80 77 79 85 90 90 88 89 90 89 87 85 81 76
133 147 152 150 149 147 143 143 146 147 148 149 151 151 150 148 148 149 152 154 157 158 157 157 158 159 158 157 156 155 154 154 154 155 156 157 155 152 149 146 148 151 151 148 146 146 147 146 142 139 140 144 145 145 148 149 146 144 142 139 138 138 135 130 127 124 120 119 117 112 105 97 91 87 85 85 89 94 95 93 90 90 90 88 85 78 72
128 142 145 145 146 147 145 145 147 147 148 149 150 152 154 152 150 152 155 156 157 159 159 160 160 159 157 158 158 157 155 154 155 154 153 153 155 155 153 148 148 150 151 149 148 149 151 150 146 143 145 149 151 149 149 149 146 144 145 144 142 142 141 140 138 134 128 123 118 113 107 102 98 93 88 86 89 95 99 95 90 89 91 87 78 68 62
143 146 147 147 148 148 147 147 148 150 151 152 152 154 157 157 155 156 158 159 160 161 162 163 162 160 159 159 158 155 153 153 153 153 152 153 157 158 154 148 146 148 149 149 148 148 150 149 146 144 148 154 155 150 144 140 138 136 135 136 136 136 139 142 143 143 139 133 127 123 119 114 107 97 90 87 89 94 100 100 94 90 87 81 73 66 61
156 151 150 149 149 148 147 147 148 150 152 156 157 159 163 164 162 161 161 162 163 164 165 166 164 162 160 158 155 152 151 151 152 154 156 157 158 157 154 151 149 149 151 153 153 151 150 147 144 144 149 154 155 153 148 143 139 135 133 131 128 125 125 126 128 132 137 137 137 136 131 124 116 106 97 93 93 96 98 98 94 89 84 80 77 74 67
159 153 154 154 152 149 148 149 151 153 157 162 165 166 168 168 166 163 163 163 162 163 166 168 165 162 161 159 156 153 152 152 154 158 160 158 156 154 154 154 154 154 153 153 153 152 148 142 137 140 150 157 157 155 152 149 145 141 140 138 133 129 127 125 122 123 124 123 122 123 124 125 123 115 106 101 100 98 94 89 85 83 81 80 80 77 67
176 172 167 163 158 154 153 154 154 156 160 164 167 169 171 171 168 167 167 166 166 166 166 166 165 163 162 161 159 157 157 158 158 158 157 154 151 150 153 154 155 154 151 148 148 149 146 137 129 130 140 151 156 157 158 159 157 151 147 145 143 139 135 132 130 128 125 118 111 111 118 128 130 122 113 108 104 100 94 89 83 80 77 76 74 71 64
190 182 173 166 162 161 161 161 161 162 164 165 167 169 171 171 171 171 171 170 170 170 165 163 163 164 162 161 161 162 162 162 160 158 158 156 153 151 150 149 149 150 149 145 145 146 143 137 130 127 127 133 140 146 152 156 155 151 148 148 149 150 148 143 140 137 130 118 108 106 111 121 131 132 125 117 111 106 101 95 88 82 76 70 67 64 61
187 181 174 171 168 166 166 167 167 168 169 169 171 172 172 172 174 176 175 173 171 168 163 161 163 166 166 165 165 164 164 163 163 163 165 165 162 160 154 147 145 149 150 148 148 150 147 141 137 133 130 130 132 135 138 139 139 143 144 139 137 142 149 151 146 141 135 124 115 108 106 110 120 131 131 123 114 109 109 107 98 90 81 72 65 62 59
185 181 177 176 173 171 170 169 169 169 170 171 174 176 177 177 179 177 174 171 170 169 168 167 168 170 170 170 168 165 164 164 162 161 163 165 166 167 164 155 151 152 151 148 151 156 156 152 150 147 143 139 137 138 138 135 133 136 137 132 127 127 132 134 131 129 130 127 121 116 112 111 114 121 126 124 117 110 110 112 108 100 93 81 69 60 54
182 178 178 179 177 174 174 175 176 176 175 176 179 181 181 181 178 173 169 169 170 172 174 176 176 174 172 170 169 166 165 162 158 158 162 166 168 172 174 171 166 160 154 151 154 159 159 158 158 157 152 149 149 150 149 146 141 137 132 130 128 126 127 128 129 129 132 131 123 118 117 116 115 118 124 129 130 127 129 133 125 115 106 90 73 60 52
174 173 174 175 173 172 173 176 177 177 176 178 179 179 178 176 172 169 168 169 171 172 173 172 170 167 166 166 167 167 166 164 163 163 165 167 170 172 174 174 174 170 163 158 159 162 162 162 163 164 165 165 165 165 164 162 158 152 143 135 133 133 133 137 139 139 142 142 134 126 123 121 117 116 122 130 135 139 145 147 138 132 125 99 74 60 49
171 171 170 170 170 169 169 171 173 174 175 176 174 171 170 170 167 165 165 166 167 168 167 165 163 164 165 165 168 170 171 173 173 170 168 168 170 172 170 170 173 179 179 173 168 167 168 171 176 179 178 173 171 172 173 171 165 160 154 147 142 142 143 148 151 150 150 154 154 149 144 138 130 125 127 134 138 142 149 152 143 139 143 132 101 68 48
171 171 170 171 171 169 167 169 171 172 172 172 170 169 170 170 166 164 164 163 164 168 170 170 169 170 171 171 172 173 174 175 177 178 179 180 179 176 174 172 177 185 190 191 191 188 181 180 188 193 185 176 172 171 171 168 164 160 158 158 161 159 156 158 163 163 159 161 164 162 159 158 153 144 143 149 148 149 158 168 165 158 164 166 153 146 113
170 171 172 173 171 168 168 172 176 175 174 175 175 174 174 172 171 171 172 171 172 175 178 178 178 178 178 178 178 177 176 178 180 185 190 191 186 181 179 178 180 185 189 196 205 207 201 198 204 199 184 175 171 170 169 171 173 173 172 175 181 181 178 178 179 179 180 183 182 177 173 172 168 166 180 189 175 158 154 166 172 171 184 201 202 210 236
172 173 173 171 169 169 170 172 171 170 171 169 165 164 167 169 171 175 178 179 180 180 179 181 185 187 186 185 184 182 183 185 187 189 191 192 190 190 191 191 192 194 196 199 205 208 208 209 204 189 178 174 174 175 176 180 186 188 189 190 190 188 189 190 189 188 193 195 190 184 181 179 173 172 192 207 203 198 204 222 241 255 257 257 264 270 276
167 165 162 161 162 165 168 165 158 157 161 162 160 161 167 171 174 179 184 185 184 184 182 181 185 189 191 190 189 188 187 188 190 192 193 193 195 199 202 204 205 204 201 199 200 202 203 201 190 181 178 178 180 182 185 189 191 192 194 200 203 203 204 204 199 193 192 191 187 184 184 185 188 197 211 215 221 231 239 244 251 259 266 277 284 282 275
162 161 160 160 161 165 168 167 163 160 162 164 168 175 180 176 174 179 183 181 178 180 181 183 186 190 192 193 193 194 195 197 199 200 197 194 194 194 193 192 194 194 189 187 191 195 194 188 181 180 183 187 188 189 191 195 196 194 193 198 205 208 207 204 201 201 203 202 198 197 203 210 218 227 234 233 233 234 232 232 240 253 267 283 293 287 278
163 165 169 174 176 175 173 174 175 174 171 170 175 182 182 173 167 170 175 178 181 185 190 194 197 198 197 196 197 200 203 202 198 193 186 179 177 178 177 177 181 185 185 186 189 192 190 185 180 180 185 193 197 196 195 197 199 200 196 193 195 199 202 204 207 211 216 220 220 221 227 230 228 227 236 244 244 237 233 236 246 257 266 277 289 291 291
164 167 171 176 179 177 173 172 175 178 177 176 176 179 180 179 178 178 180 185 189 188 186 186 187 188 187 186 186 185 183 179 177 176 171 162 159 166 173 177 182 187 191 195 197 195 193 191 186 180 181 194 202 202 200 201 203 204 201 193 184 185 194 205 212 215 217 220 222 223 225 225 223 227 237 244 242 238 237 240 246 252 258 268 278 281 279
168 168 169 172 176 177 175 173 174 177 179 177 175 175 177 181 183 182 181 181 182 180 173 171 174 175 173 170 169 168 166 164 164 167 169 168 169 174 179 185 189 190 195 202 206 205 200 195 189 182 180 193 207 207 204 205 207 207 204 198 191 189 194 202 210 214 216 219 222 223 222 222 227 236 243 243 241 243 245 245 247 252 259 268 273 271 267
173 172 175 181 182 179 176 175 176 179 181 179 177 178 180 181 181 182 182 182 183 183 179 174 174 173 169 165 163 165 167 165 164 165 167 172 177 179 181 186 192 194 196 203 210 211 209 204 201 197 195 202 214 217 212 211 213 213 209 205 204 206 208 210 213 218 221 224 229 235 238 238 241 246 248 248 250 254 255 254 253 254 257 260 263 266 274
184 183 184 186 182 178 176 178 180 182 182 181 180 182 184 183 182 184 186 186 186 185 180 175 176 177 174 169 166 169 172 174 176 179 185 193 197 195 190 188 190 193 199 205 211 215 214 214 216 217 215 215 220 225 222 218 219 219 217 214 215 220 222 222 223 226 230 234 238 244 247 249 249 249 250 251 254 255 255 254 253 253 255 258 264 271 280
189 186 184 183 181 179 180 183 183 183 183 184 184 184 183 183 183 186 188 188 188 186 181 177 177 179 180 180 179 178 180 185 192 198 205 211 213 209 205 204 204 204 204 205 210 218 222 223 226 230 231 230 230 232 231 226 223 223 223 222 222 225 228 230 229 230 234 241 245 248 249 249 248 247 249 251 252 251 253 257 260 261 263 266 269 273 279
183 182 182 184 184 183 182 185 186 187 187 188 187 185 184 185 187 189 189 189 191 193 191 187 183 181 183 187 191 193 198 208 218 225 228 229 224 218 214 214 215 214 209 204 206 214 219 223 229 236 239 240 240 238 234 228 224 223 224 225 225 226 229 231 231 230 232 237 242 246 248 248 249 253 256 258 256 255 258 263 266 266 266 267 270 274 277